Location: Koussan�
(15.2012°N, 12.5548°W)
Time: 18:06:54
(UTC+00:00)

GPS 2-12 Rocket1 - Pass Details

Date: 20 October 2020
Orbit: 586 x 651 km, 20.0° (Epoch: 01 December)

Event Time Altitude Azimuth Distance (km) Brightness Sun altitude
Rises 19:39:44 0° 280° (W) 2,794 7.9 -18.3°
Reaches altitude 10° 19:42:08 10° 286° (WNW) 1,899 6.6 -18.8°
Maximum altitude 19:46:22 44° 359° (N) 818 3.6 -19.9°
Enters shadow 19:47:19 38° 34° (NNE) 906 3.6 -20.1°
